When you browse on this site, cookies collect data to enhance your experience and personalize the content and advertising you see.
Visit our Privacy Policy to learn more. By continuing to use the site, you agree to this use of cookies and data.
  • In Lithuania
  • List of Countries
  • For 7 days
  • Water Temperature
  • Weather Map
  • Weather Widgets
  • user-avatar
    Login

    Hourly Weather Ovcharovka

    Today, 20 August, Tuesday

    Time Temperature Precipitation Wind Pressure Humidity
    00:00 +16°C° 0 mm 0 mps 746 mmHg 89%
    01:00 +16°C° 0 mm 0 mps 747 mmHg 89%
    02:00 +16°C° 0 mm 1 mps 747 mmHg 89%
    03:00 +15°C° 0 mm 0 mps 747 mmHg 90%
    04:00 +15°C° 0 mm 0 mps 747 mmHg 90%
    05:00 +15°C° 0 mm 0 mps 747 mmHg 90%
    06:00 +15°C° 0 mm 0 mps 747 mmHg 90%
    07:00 +17°C° 0 mm 0 mps 748 mmHg 84%
    08:00 +18°C° 0 mm 0 mps 748 mmHg 79%
    09:00 +20°C° 0 mm 0 mps 748 mmHg 72%
    10:00 +23°C° 0 mm 1 mps 748 mmHg 66%
    11:00 +24°C° 0 mm 1 mps 748 mmHg 61%
    12:00 +25°C° 0 mm 1 mps 748 mmHg 56%
    13:00 +26°C° 0 mm 1 mps 748 mmHg 54%
    14:00 +26°C° 0 mm 1 mps 748 mmHg 53%
    15:00 +27°C° 0 mm 1 mps 748 mmHg 51%
    16:00 +26°C° 0 mm 1 mps 748 mmHg 55%
    17:00 +26°C° 0 mm 1 mps 748 mmHg 58%
    18:00 +26°C° 0 mm 1 mps 748 mmHg 62%
    19:00 +24°C° 0 mm 1 mps 748 mmHg 65%
    20:00 +23°C° 0 mm 1 mps 748 mmHg 69%
    21:00 +21°C° 0 mm 1 mps 749 mmHg 72%
    22:00 +21°C° 0 mm 1 mps 748 mmHg 74%
    23:00 +21°C° 0 mm 1 mps 748 mmHg 75%

    Tomorrow, 21 August, Wednesday

    Time Temperature Precipitation Wind Pressure Humidity
    00:00 +20°C° 0 mm 1 mps 748 mmHg 77%
    01:00 +20°C° 0 mm 1 mps 748 mmHg 79%
    02:00 +20°C° 0 mm 1 mps 749 mmHg 81%
    03:00 +19°C° 0 mm 1 mps 749 mmHg 83%
    04:00 +19°C° 0 mm 1 mps 749 mmHg 84%
    05:00 +19°C° 0 mm 1 mps 749 mmHg 85%
    06:00 +19°C° 0 mm 1 mps 748 mmHg 87%
    07:00 +21°C° 0 mm 1 mps 749 mmHg 83%
    08:00 +22°C° 0 mm 1 mps 749 mmHg 79%
    09:00 +23°C° 0 mm 1 mps 749 mmHg 75%
    10:00 +25°C° 0 mm 1 mps 749 mmHg 72%
    11:00 +26°C° 0 mm 1 mps 749 mmHg 68%
    12:00 +27°C° 0 mm 1 mps 749 mmHg 65%
    13:00 +28°C° 0 mm 1 mps 749 mmHg 63%
    14:00 +28°C° 0 mm 1 mps 749 mmHg 60%
    15:00 +28°C° 0 mm 1 mps 748 mmHg 58%
    16:00 +28°C° 0 mm 1 mps 748 mmHg 62%
    17:00 +28°C° 0 mm 2 mps 748 mmHg 65%
    18:00 +27°C° 0 mm 2 mps 748 mmHg 69%
    19:00 +26°C° 0 mm 1 mps 748 mmHg 73%
    20:00 +24°C° 0 mm 1 mps 748 mmHg 76%
    21:00 +23°C° 0 mm 1 mps 748 mmHg 80%
    22:00 +22°C° 0 mm 1 mps 748 mmHg 82%
    23:00 +22°C° 0 mm 1 mps 748 mmHg 84%

    Day after tomorrow, 22 August, Thursday

    Time Temperature Precipitation Wind Pressure Humidity
    00:00 +22°C° 0 mm 1 mps 748 mmHg 86%
    01:00 +21°C° 0 mm 1 mps 748 mmHg 87%
    02:00 +21°C° 0 mm 1 mps 748 mmHg 88%
    03:00 +21°C° 0 mm 1 mps 747 mmHg 89%
    04:00 +21°C° 0 mm 1 mps 747 mmHg 89%
    05:00 +20°C° 0 mm 1 mps 747 mmHg 89%
    06:00 +20°C° 0 mm 1 mps 747 mmHg 89%
    07:00 +22°C° 0 mm 1 mps 747 mmHg 83%
    08:00 +23°C° 0 mm 1 mps 747 mmHg 78%
    09:00 +25°C° 0 mm 1 mps 747 mmHg 72%
    10:00 +26°C° 0 mm 1 mps 747 mmHg 68%
    11:00 +27°C° 0 mm 1 mps 747 mmHg 65%
    12:00 +28°C° 0 mm 1 mps 747 mmHg 61%
    13:00 +28°C° 0.4 mm 1 mps 747 mmHg 60%
    14:00 +28°C° 0.4 mm 1 mps 746 mmHg 60%
    15:00 +28°C° 0.4 mm 2 mps 746 mmHg 60%
    16:00 +28°C° 0.7 mm 2 mps 746 mmHg 65%
    17:00 +27°C° 0.7 mm 2 mps 746 mmHg 70%
    18:00 +26°C° 0.7 mm 2 mps 746 mmHg 76%
    19:00 +24°C° 0.6 mm 3 mps 747 mmHg 81%
    20:00 +21°C° 0.6 mm 4 mps 747 mmHg 86%
    21:00 +20°C° 0.6 mm 5 mps 747 mmHg 91%
    22:00 +19°C° 0 mm 5 mps 747 mmHg 91%
    23:00 +17°C° 0 mm 5 mps 748 mmHg 91%

    23 August, Friday

    Time Temperature Precipitation Wind Pressure Humidity
    00:00 +16°C° 0 mm 5 mps 748 mmHg 91%
    01:00 +16°C° 0 mm 5 mps 748 mmHg 91%
    02:00 +16°C° 0 mm 5 mps 748 mmHg 91%
    03:00 +15°C° 0 mm 5 mps 749 mmHg 90%
    04:00 +15°C° 0 mm 5 mps 749 mmHg 91%
    05:00 +14°C° 0 mm 4 mps 749 mmHg 91%
    06:00 +14°C° 0 mm 4 mps 749 mmHg 91%
    07:00 +15°C° 0 mm 5 mps 749 mmHg 88%
    08:00 +16°C° 0 mm 5 mps 749 mmHg 84%
    09:00 +17°C° 0 mm 5 mps 749 mmHg 81%
    10:00 +17°C° 0 mm 5 mps 749 mmHg 76%
    11:00 +19°C° 0 mm 5 mps 750 mmHg 72%
    12:00 +20°C° 0 mm 5 mps 750 mmHg 68%
    13:00 +21°C° 0 mm 5 mps 750 mmHg 66%
    14:00 +21°C° 0 mm 5 mps 749 mmHg 64%
    15:00 +22°C° 0 mm 5 mps 749 mmHg 62%
    16:00 +21°C° 0 mm 4 mps 749 mmHg 65%
    17:00 +21°C° 0 mm 3 mps 749 mmHg 68%
    18:00 +20°C° 0 mm 3 mps 749 mmHg 71%
    19:00 +19°C° 0 mm 3 mps 749 mmHg 74%
    20:00 +18°C° 0 mm 3 mps 749 mmHg 77%
    21:00 +16°C° 0 mm 3 mps 749 mmHg 80%
    22:00 +16°C° 0 mm 3 mps 749 mmHg 80%
    23:00 +14°C° 0 mm 3 mps 749 mmHg 80%

    24 August, Saturday

    Time Temperature Precipitation Wind Pressure Humidity
    00:00 +14°C° 0 mm 3 mps 750 mmHg 80%
    01:00 +14°C° 0 mm 2 mps 750 mmHg 81%
    02:00 +14°C° 0 mm 2 mps 750 mmHg 81%
    03:00 +14°C° 0 mm 2 mps 750 mmHg 82%
    04:00 +14°C° 0 mm 2 mps 750 mmHg 83%
    05:00 +13°C° 0 mm 2 mps 750 mmHg 84%
    06:00 +13°C° 0 mm 2 mps 750 mmHg 85%
    07:00 +15°C° 0 mm 2 mps 750 mmHg 80%
    08:00 +17°C° 0 mm 2 mps 750 mmHg 76%
    09:00 +18°C° 0 mm 2 mps 751 mmHg 71%
    10:00 +19°C° 0 mm 2 mps 750 mmHg 65%
    11:00 +20°C° 0 mm 2 mps 750 mmHg 60%
    12:00 +23°C° 0 mm 2 mps 750 mmHg 55%
    13:00 +23°C° 0 mm 2 mps 750 mmHg 53%
    14:00 +23°C° 0 mm 2 mps 750 mmHg 51%
    15:00 +24°C° 0 mm 2 mps 750 mmHg 49%
    16:00 +23°C° 0 mm 2 mps 749 mmHg 53%
    17:00 +23°C° 0 mm 1 mps 749 mmHg 57%
    18:00 +22°C° 0 mm 1 mps 749 mmHg 61%
    19:00 +21°C° 0 mm 1 mps 749 mmHg 64%
    20:00 +19°C° 0 mm 1 mps 749 mmHg 67%
    21:00 +16°C° 0 mm 0 mps 749 mmHg 70%
    22:00 +15°C° 0 mm 0 mps 749 mmHg 71%
    23:00 +15°C° 0 mm 0 mps 749 mmHg 72%

    25 August, Sunday

    Time Temperature Precipitation Wind Pressure Humidity
    00:00 +14°C° 0 mm 0 mps 749 mmHg 73%
    01:00 +14°C° 0 mm 0 mps 748 mmHg 75%
    02:00 +15°C° 0 mm 1 mps 748 mmHg 76%
    03:00 +15°C° 0 mm 1 mps 748 mmHg 77%
    04:00 +14°C° 0 mm 1 mps 748 mmHg 79%
    05:00 +14°C° 0 mm 2 mps 748 mmHg 80%
    06:00 +14°C° 0 mm 2 mps 748 mmHg 82%
    07:00 +16°C° 0 mm 2 mps 748 mmHg 77%
    08:00 +17°C° 0 mm 2 mps 748 mmHg 73%
    09:00 +19°C° 0 mm 2 mps 748 mmHg 68%
    10:00 +20°C° 0 mm 3 mps 747 mmHg 64%
    11:00 +21°C° 0 mm 3 mps 747 mmHg 60%
    12:00 +22°C° 0 mm 3 mps 747 mmHg 56%
    13:00 +24°C° 0 mm 3 mps 747 mmHg 56%
    14:00 +23°C° 0 mm 4 mps 746 mmHg 56%
    15:00 +23°C° 0 mm 4 mps 746 mmHg 56%
    16:00 +22°C° 0 mm 4 mps 746 mmHg 61%
    17:00 +22°C° 0 mm 3 mps 746 mmHg 65%
    18:00 +21°C° 0 mm 3 mps 746 mmHg 70%
    19:00 +20°C° 0 mm 3 mps 746 mmHg 75%
    20:00 +18°C° 0 mm 3 mps 746 mmHg 81%
    21:00 +17°C° 0 mm 3 mps 746 mmHg 86%
    22:00 +16°C° 0 mm 3 mps 747 mmHg 86%
    23:00 +14°C° 0 mm 3 mps 747 mmHg 87%
    Show more